Regional Weather Roundup
Issued by NWS

Home | Current Version | Previous Version | Text Only | Print | Product List | Glossary On
Versions: 1 2 3 4 5 6 7 8 9 10 11 12 13 14 15 16 17 18 19 20 21 22 23 24 25 26 27
000
ASUS46 KPQR 192210
RWROR

OREGON REGIONAL WEATHER ROUNDUP
NATIONAL WEATHER SERVICE PORTLAND OR
200 PM PST THU JAN 19 2017

NOTE: "FAIR" INDICATES FEW OR NO CLOUDS BELOW 12,000 FEET WITH
NO SIGNIFICANT WEATHER AND/OR OBSTRUCTIONS TO VISIBILITY.

ORZ001>013-192300-
NORTHWEST OREGON


CITY           SKY/WX    TMP DP  RH WIND       PRES   REMARKS
ASTORIA        LGT RAIN  50  44  80 S12G22    29.50F
NEWPORT        PTSUNNY   48  45  87 S18G25    29.61F FOG
PORTLAND       PTSUNNY   52  40  63 S16       29.58F
VANCOUVER WA   PTSUNNY   51  40  65 S7        29.58F
SCAPPOOSE      LGT RAIN  50  43  77 S8        29.56F
HILLSBORO      CLOUDY    50  43  77 S10G20    29.56F
AURORA         CLOUDY    51  40  65 S12G26    29.60F
MCMINNVILLE    CLOUDY    50  43  77 S12G22    29.58F
SALEM          CLOUDY    51  40  65 S15       29.58F
CORVALLIS        N/A     50  43  76 S16       29.61F
EUGENE         PTSUNNY   50  42  74 S13       29.62F
$$

ORZ021-028-192300-
SOUTHWEST OREGON


CITY           SKY/WX    TMP DP  RH WIND       PRES   REMARKS
NORTH BEND     CLOUDY    52  45  76 S8        29.63F
BROOKINGS      CLOUDY    49  45  86 S10G18    29.69F
ROSEBURG       PTSUNNY   52  38  58 S8        29.64F
SEXTON SUMMIT  FOG       34  33  96 S13G18    29.59F VSB<1/4 WCI  25
MEDFORD        MOSUNNY   49  40  71 CALM      29.65F
$$

ORZ014>016-041-192300-
COLUMBIA GORGE


CITY           SKY/WX    TMP DP  RH WIND       PRES   REMARKS
TROUTDALE      CLOUDY    52  40  63 SW12G20   29.59F
THE DALLES     MOSUNNY   36  33  89 CALM      29.62F FOG
$$

ORZ029>031-041-044-049-050-061>064-502-503-505>511-192300-
EASTERN OREGON


CITY           SKY/WX    TMP DP  RH WIND       PRES   REMARKS
REDMOND        MOSUNNY   42  27  55 S13       29.56F
BEND           MOSUNNY   41  30  65 S13       29.57F
PRINEVILLE     MOSUNNY   43  28  56 S15G22    29.57F
KLAMATH FALLS  MOSUNNY   38  30  73 N3        29.63F
LAKEVIEW       CLOUDY    36  30  80 SE13      29.66S WCI  27
HERMISTON      SUNNY     40  34  79 S3        29.59F HAZE
PENDLETON      SUNNY     41  34  76 N7        29.57F
JOHN DAY       CLOUDY    41  34  76 CALM      29.60F
MEACHAM        PTSUNNY   38  33  82 CALM      29.56F
LA GRANDE      MOSUNNY   36  34  93 N5        29.61S WCI  32
BAKER CITY     CLOUDY    33  30  88 NE8       29.63S WCI  26
BURNS          MOSUNNY   33  29  85 SE3       29.63F
ROME             N/A     42  29  59 SW10      29.64S
ONTARIO        PTSUNNY   31  27  85 W3        29.71S FOG
$$




USA.gov is the U.S. government's official web portal to all federal, state and local government web resources and services.